Probability
13 24 29 24 17 13 10 10 12 13 10 6 2 0 0 0 0 0 0 0 0 0 0 0 0 0 0 0 0 0 0 0 0 0 0 0 0 0 0 0 0 0 0
28 38 43 36 27 21 17 16 17 18 14 9 4 2 1 1 0 0 0 0 0 0 0 0 0 0 0 0 0 0 0 0 0 0 0 0 0 0 0 0 0 0 0
45 51 54 51 43 33 29 28 30 30 25 17 10 7 5 3 1 1 0 0 0 0 0 0 0 0 0 0 0 0 0 0 0 0 0 0 0 0 0 0 0 0 0
49 55 61 63 59 48 41 41 46 47 40 28 19 14 9 5 3 3 1 1 1 0 0 0 0 0 0 1 1 0 0 0 0 0 0 0 0 0 0 0 0 0 0
48 56 67 74 73 64 54 53 58 59 52 39 28 19 11 7 6 5 4 3 2 1 0 0 0 0 1 2 2 1 0 0 0 0 0 0 0 0 0 0 0 0 0
48 57 72 81 82 76 68 63 62 62 57 47 35 23 13 9 8 7 5 4 3 2 1 1 0 0 1 2 2 1 0 0 0 0 0 0 0 0 0 0 0 0 0
53 61 75 83 84 79 75 69 65 62 60 53 41 28 18 12 11 8 6 5 4 3 2 1 1 0 0 1 1 0 0 0 0 0 0 0 0 0 0 0 0 0 0
60 67 77 81 78 75 73 72 69 67 64 57 45 32 22 16 14 11 8 7 5 4 2 1 1 1 0 0 0 0 0 0 0 0 0 0 0 0 0 0 0 0 0
61 67 75 74 70 70 70 70 71 71 68 59 46 33 23 18 15 12 10 8 7 5 3 2 2 1 0 0 0 0 0 0 0 0 0 0 0 0 0 0 0 0 0
60 66 72 72 66 62 60 62 65 69 68 57 42 30 19 13 10 9 8 8 7 5 4 4 3 1 0 0 0 0 0 0 0 0 0 0 0 0 0 0 0 0 0
64 67 71 71 65 53 48 51 52 55 53 42 31 23 13 6 5 5 7 8 6 4 4 4 3 2 0 0 0 0 0 0 0 0 1 1 1 0 0 0 0 0 0
67 68 69 69 63 52 48 49 45 40 33 22 18 17 11 7 5 4 8 8 5 3 3 3 2 1 0 0 0 0 0 0 0 0 1 2 2 1 0 0 0 0 0
67 67 68 70 68 62 59 57 51 44 33 23 22 24 20 17 12 8 8 7 4 3 2 2 1 0 0 0 0 0 0 0 0 0 1 2 2 2 1 0 1 0 0
63 66 70 76 78 76 72 69 64 58 49 43 42 40 32 26 18 12 9 7 4 3 2 1 0 0 0 0 0 0 0 0 0 0 0 1 1 2 2 2 2 2 2
56 62 71 79 84 84 82 78 72 66 63 60 54 45 35 27 19 15 14 11 7 4 4 3 2 1 1 1 0 0 0 0 0 0 1 1 3 4 5 5 5 5 5
47 54 64 74 82 84 83 80 74 72 72 65 54 42 32 25 21 20 19 17 11 8 9 8 4 3 3 2 0 0 0 0 1 1 2 3 5 6 7 8 9 10 10
40 47 55 62 72 78 78 75 71 71 71 64 56 48 36 28 29 29 25 20 17 15 17 14 8 4 3 2 1 1 2 2 2 2 2 4 5 5 6 9 12 15 16
38 45 50 52 59 66 71 71 68 67 67 66 65 59 48 39 38 38 33 28 26 25 23 18 13 10 8 5 4 5 6 5 4 3 2 3 4 5 8 12 15 17 18
42 47 49 45 47 53 61 66 65 64 67 69 72 69 61 52 47 44 41 36 34 34 31 25 22 21 18 13 9 9 9 8 6 4 2 3 6 9 12 15 17 17 17
46 50 49 43 42 46 52 60 61 59 62 68 72 72 69 62 54 49 47 43 42 44 43 38 34 31 27 21 14 10 10 11 12 8 4 5 10 13 14 16 18 18 16
45 49 49 47 47 49 52 56 57 55 57 62 65 67 68 65 59 56 56 56 56 57 53 48 43 37 32 26 19 14 11 13 15 12 8 9 11 13 13 12 14 15 15
35 40 45 48 52 54 55 55 54 51 49 51 55 57 58 58 60 61 63 65 64 61 55 50 47 42 36 31 25 19 14 15 16 12 10 9 9 9 9 8 9 10 11
24 27 34 41 48 52 54 53 49 44 40 40 42 42 41 43 48 55 58 57 56 54 49 47 45 42 37 31 26 22 19 18 14 9 8 7 6 7 7 6 7 7 7
17 18 24 32 39 45 47 48 43 36 31 29 27 23 22 22 26 33 36 36 38 38 36 34 33 33 30 26 23 21 19 17 13 8 5 4 5 7 8 6 5 4 5
16 15 18 24 31 35 39 40 37 30 23 18 14 12 10 9 8 11 13 15 18 20 19 17 17 18 19 17 15 14 13 12 10 6 4 3 4 6 6 5 3 1 1
16 15 16 20 25 29 32 35 31 24 17 11 8 7 7 5 3 3 4 6 8 10 9 9 8 9 9 9 8 7 8 8 7 5 4 3 4 4 4 2 1 0 0
Wind_Speed
12 17 17 12 11 13 15 16 16 17 17 16 16 16 15 14 13 13 12 11 10 10 10 10 10 11 11 12 13 13 13 14 14 14 14 13 13 13 13 13 11 12 14
16 18 17 13 13 13 15 16 16 17 17 16 16 15 15 14 13 12 12 11 10 10 10 10 11 11 12 12 13 13 13 13 13 13 13 13 12 12 12 9 4 12 12
18 19 19 14 14 15 16 16 16 17 17 16 15 15 14 13 13 12 12 11 10 10 10 10 11 11 11 12 12 12 12 12 12 12 12 11 12 11 10 8 11 13 11
19 19 19 17 15 16 16 17 17 17 17 16 15 15 14 13 12 12 12 11 10 10 10 10 11 11 11 11 11 11 11 11 10 11 9 8 10 12 10 10 11 11 11
18 19 19 19 16 17 17 17 17 17 17 16 15 15 14 13 12 11 11 11 11 10 10 10 10 10 10 10 10 10 10 10 10 11 6 7 8 11 10 10 10 10 10
19 19 21 19 18 17 17 17 17 17 17 16 16 15 14 13 12 11 11 11 11 10 10 10 10 9 9 9 9 8 8 9 11 7 5 6 8 11 11 11 10 10 9
19 19 22 19 18 18 18 17 17 17 16 16 15 15 14 12 12 11 11 11 11 10 10 10 9 8 8 7 7 7 7 7 9 5 5 5 7 12 11 11 11 10 10
18 19 20 20 20 19 18 17 16 16 15 15 14 14 13 12 11 11 11 11 10 10 10 9 8 8 7 6 5 5 5 7 7 4 5 5 11 10 10 10 10 10 10
18 19 20 20 20 19 18 17 16 15 15 14 14 14 13 13 12 12 11 10 10 10 9 9 8 7 6 5 4 4 4 6 7 4 5 4 12 10 10 10 10 10 10
17 18 19 19 19 18 17 18 17 16 15 14 14 14 14 13 12 11 11 10 10 9 9 8 8 7 6 4 3 3 4 7 8 5 4 6 12 11 11 11 11 11 11
16 16 18 19 18 18 17 17 17 16 14 14 14 14 13 12 12 11 10 11 10 9 9 8 7 6 6 6 4 4 6 7 6 4 4 8 11 12 12 12 12 12 12
19 19 18 19 18 18 14 14 13 13 13 13 12 13 11 8 7 8 12 10 9 9 8 8 7 7 9 8 9 8 7 8 6 4 4 10 10 12 13 13 13 13 13
18 18 18 17 17 16 12 12 9 9 10 12 13 13 9 8 7 6 7 9 9 10 9 9 9 8 8 5 4 6 6 6 4 5 4 11 10 13 14 14 14 15 15
17 19 18 17 16 15 12 10 10 9 9 9 11 12 9 6 7 6 5 7 7 6 6 6 5 6 6 6 7 7 7 6 5 4 3 11 10 13 14 14 15 16 16
16 17 17 17 15 13 11 9 10 9 10 9 8 10 9 7 7 7 5 5 6 5 6 6 6 5 6 7 7 7 7 7 7 6 3 9 10 11 13 14 15 16 16
13 14 14 15 15 13 11 9 9 9 8 9 9 10 11 8 7 7 6 6 6 5 5 5 5 5 5 5 6 6 7 7 6 6 6 5 10 11 12 13 14 15 16
12 13 14 14 14 14 12 12 9 8 9 8 8 9 10 9 8 7 6 5 5 5 5 5 5 4 5 5 6 6 6 6 5 5 6 5 5 9 11 10 12 13 14
10 12 12 12 13 13 11 10 8 8 8 8 8 8 10 10 9 7 6 6 5 4 4 4 4 4 4 4 4 4 4 3 5 5 5 5 5 5 6 8 8 10 12
7 9 11 11 12 11 10 8 8 7 7 6 6 7 9 10 9 8 6 5 5 4 4 5 4 4 4 4 4 4 4 4 4 4 4 5 4 4 4 2 5 6 8
5 7 9 11 11 10 8 7 6 6 5 5 5 5 8 8 9 8 6 6 5 4 4 4 4 3 3 3 4 3 3 3 2 3 3 3 3 4 4 5 3 2 3
3 4 6 8 8 7 7 7 7 7 6 5 4 5 6 6 7 7 5 5 5 4 4 4 4 4 3 2 3 3 3 2 1 2 2 3 3 4 4 5 4 4 2
3 2 3 5 6 6 6 6 5 5 4 3 3 2 3 4 5 5 6 5 4 4 3 3 3 3 2 2 3 3 3 2 1 2 2 3 4 4 5 6 6 5 4
6 4 2 2 3 4 5 5 4 4 3 2 3 3 2 2 3 3 3 3 3 3 3 2 3 4 3 2 2 2 3 2 0 2 4 4 4 4 5 5 6 6 6
6 4 3 3 3 3 4 5 7 5 5 4 4 4 5 5 5 5 5 4 3 3 3 2 1 1 2 2 1 1 2 2 2 1 2 3 5 6 6 5 6 7 7
6 5 5 5 5 4 3 4 6 6 6 6 7 8 7 7 8 8 7 6 7 6 6 6 5 3 2 1 0 0 1 0 1 2 1 2 3 5 5 6 5 6 7
8 7 6 6 7 6 6 6 7 9 9 10 9 8 6 6 7 9 9 8 8 7 8 7 7 8 7 6 5 4 3 2 2 1 1 1 2 3 5 5 5 5 5
Wind_Direction
158 146 142 147 145 145 147 147 146 144 143 144 144 143 143 141 138 135 133 130 126 122 120 117 117 119 121 122 125 126 126 126 126 128 129 129 129 127 125 132 147 118 118
153 146 143 145 145 145 146 146 145 143 143 143 144 143 143 142 140 138 136 132 129 126 123 121 119 120 122 123 126 130 132 133 134 135 137 137 135 131 133 145 115 113 130
151 147 149 146 146 146 145 144 143 142 143 144 144 143 143 143 141 140 139 135 133 130 129 127 125 125 125 126 130 134 136 139 141 145 160 150 134 135 135 125 108 128 136
153 152 155 147 149 147 146 144 142 143 144 144 143 144 145 144 143 143 141 138 135 134 134 133 131 129 130 131 135 138 142 145 149 169 181 141 141 138 142 137 136 143 143
155 156 148 152 151 148 147 146 144 145 145 145 146 147 148 147 146 144 144 142 140 138 136 134 133 133 134 136 136 139 142 147 162 207 153 141 136 143 154 153 151 150 150
158 156 151 157 152 149 149 150 149 148 148 149 150 150 150 149 147 147 148 145 144 142 139 136 134 135 136 136 138 140 145 156 192 186 144 157 146 154 164 165 164 160 158
161 158 154 158 153 152 153 153 153 152 152 152 153 153 152 151 150 150 150 149 148 146 143 141 139 137 137 139 144 148 157 186 232 156 162 179 143 154 175 176 174 171 171
161 158 154 160 158 157 158 157 156 155 154 154 154 154 154 153 153 153 153 153 152 150 147 145 144 142 139 142 148 160 177 220 224 177 193 178 128 165 184 185 182 180 182
165 160 159 164 163 162 161 160 158 157 156 156 156 156 157 157 157 157 156 156 155 154 152 151 152 150 146 146 152 170 197 242 255 194 204 171 140 179 192 192 191 191 192
169 164 164 167 166 167 167 165 164 161 159 159 160 161 160 160 163 162 165 158 159 160 160 159 160 159 158 157 162 180 208 234 239 206 211 151 154 191 200 199 200 201 201
173 170 170 169 168 172 170 167 169 166 163 164 168 166 169 176 171 174 168 155 166 168 168 167 169 171 180 181 190 206 229 240 226 228 225 135 172 200 208 206 207 208 207
178 178 176 174 171 174 170 168 176 177 172 183 176 175 188 179 177 178 136 164 173 175 176 178 180 191 218 203 188 204 233 238 249 227 191 148 191 209 213 211 212 213 213
180 181 179 176 175 174 171 174 179 181 176 190 182 184 187 177 180 181 164 173 182 186 194 176 196 211 216 224 231 220 241 254 247 245 188 163 201 218 220 217 217 217 218
185 185 180 177 176 179 177 180 182 184 181 189 183 189 184 189 188 185 190 185 184 192 198 202 215 211 226 228 239 246 241 244 252 254 196 169 206 225 228 224 223 222 222
190 188 183 181 177 179 180 184 187 191 187 187 183 191 193 193 195 186 192 195 206 199 191 213 223 214 226 227 238 242 251 255 262 263 231 180 208 227 230 229 227 226 225
192 190 185 185 181 181 183 188 193 194 189 190 190 191 199 203 196 195 194 196 211 211 214 217 222 222 232 241 245 249 257 261 253 261 271 215 204 220 232 236 233 229 228
192 189 187 188 184 185 190 194 197 198 192 197 194 191 199 207 198 203 206 199 210 211 208 220 220 226 232 236 243 253 258 268 277 276 277 278 245 215 220 234 239 233 230
193 189 187 187 187 190 195 198 200 201 198 198 195 192 201 208 202 208 212 209 208 214 216 219 226 229 237 245 250 261 269 272 274 279 274 270 276 275 228 221 237 238 235
190 185 185 190 191 191 193 197 209 205 205 199 199 197 200 204 204 209 216 214 212 217 226 233 220 237 242 250 259 253 260 268 282 284 290 292 296 294 291 239 223 237 240
178 185 187 192 195 190 190 191 199 203 207 202 200 201 202 203 206 209 212 215 219 218 220 226 226 232 247 254 268 276 278 282 293 298 299 307 322 321 322 323 305 279 244
130 171 189 191 193 185 182 188 195 201 203 193 193 196 200 205 206 204 211 205 211 213 220 224 225 226 239 253 258 259 252 244 275 317 329 339 353 3 5 359 352 342 331
58 98 158 185 188 189 191 191 192 186 187 176 160 157 187 195 195 190 193 196 196 193 197 211 213 227 230 234 263 271 259 223 149 41 31 27 17 20 25 23 18 13 4
39 45 86 143 163 174 175 173 161 154 149 157 145 111 80 102 127 139 161 171 165 165 162 179 205 214 215 204 254 271 276 271 136 96 62 49 38 34 32 29 30 27 29
33 42 59 84 97 127 153 162 166 170 163 150 119 97 76 70 80 85 87 93 98 101 109 108 80 223 222 212 180 262 280 311 284 213 110 68 52 41 35 31 33 36 37
35 51 59 72 74 79 102 140 149 139 119 108 105 96 82 72 72 76 80 82 82 79 77 73 70 61 52 40 38 261 227 257 298 273 252 70 64 48 39 37 38 41 42
40 51 62 72 72 70 74 82 97 110 113 114 111 104 95 84 73 72 78 79 78 80 79 76 73 71 66 62 57 45 34 37 32 9 6 36 59 55 49 45 42 44 44